Wind_Speed
13 13 14 15 15 15 14 13 14 14 15 16 16 16 16 16 15 15 15 14 14 15 15 16 16 15 16 15 14 14 14 15 15 16 16 17 17 16 16 17 17 17 17 17
12 13 13 14 14 14 14 14 14 15 15 15 16 16 16 15 14 13 13 14 15 15 16 16 15 15 14 14 13 14 14 15 14 14 15 15 16 15 15 14 14 14 15 16
12 13 13 14 14 14 15 15 15 15 15 15 15 14 14 14 14 13 13 13 14 14 14 14 14 13 13 13 13 13 13 13 13 14 14 13 13 14 13 12 12 13 14 15
13 13 14 14 14 13 13 14 14 14 13 13 13 12 12 13 13 12 12 12 12 12 12 12 12 13 13 12 12 12 12 12 12 12 12 11 11 11 11 11 12 13 14 14
13 13 14 14 13 13 13 12 12 13 12 12 12 12 11 11 11 11 11 10 10 10 10 10 10 11 10 10 10 10 10 10 10 11 11 11 10 10 10 11 12 13 13 13
13 13 13 13 12 12 11 11 11 12 12 11 10 10 10 10 10 10 9 9 9 9 9 9 9 9 9 8 8 8 8 8 8 9 10 10 10 10 10 10 11 12 12 13
13 14 13 12 11 11 11 11 11 11 11 10 10 10 10 9 9 9 9 8 8 8 8 8 8 7 7 7 7 7 7 7 7 8 8 8 9 9 10 10 11 11 12 12
13 14 14 12 11 10 10 10 11 11 10 10 9 9 9 8 8 8 8 8 8 8 8 7 7 6 6 6 6 6 6 7 7 7 7 8 8 8 9 10 11 11 12 12
13 13 13 11 11 10 10 10 10 9 9 9 9 9 8 8 7 7 6 6 6 6 6 7 6 6 5 5 5 4 5 5 5 6 6 6 7 8 9 10 11 11 11 11
13 12 12 11 11 11 10 9 9 8 8 8 8 8 7 6 6 6 5 5 5 5 5 5 4 4 3 3 3 3 3 3 4 4 4 6 7 8 9 10 10 11 11 10
12 12 11 10 10 9 9 8 7 7 7 7 7 6 6 6 5 5 5 5 4 4 3 4 4 3 3 3 3 3 3 3 3 4 5 6 7 8 9 9 10 10 10 10
12 11 10 9 8 8 7 7 6 6 7 6 5 5 5 5 4 4 4 3 3 3 3 3 3 3 4 3 2 2 1 2 3 3 4 6 7 8 9 10 10 11 11 11
11 11 9 8 8 6 6 5 5 5 5 4 4 4 4 3 4 3 3 1 1 1 2 2 2 2 2 2 2 2 2 2 2 3 5 6 7 8 9 10 10 10 11 11
10 9 9 8 7 6 5 5 4 4 4 4 4 3 3 3 3 2 1 1 1 1 1 1 1 1 1 0 1 1 1 2 3 4 5 7 8 9 10 10 10 10 11 11
9 8 8 7 6 5 5 4 4 4 4 3 3 2 2 1 1 1 1 1 1 1 1 1 1 1 1 0 0 0 1 2 3 4 6 7 8 9 10 10 10 10 11 12
8 8 7 7 6 5 4 4 4 3 3 2 2 2 2 2 1 1 1 1 1 1 1 1 1 1 1 1 1 0 1 2 3 5 6 8 9 10 10 11 11 11 12 13
8 8 8 7 6 5 4 4 4 3 2 2 2 2 2 2 1 1 1 2 2 2 2 1 1 1 1 1 1 1 2 3 4 6 7 8 9 11 11 12 12 13 14 15
8 8 8 7 6 5 4 3 3 3 3 3 2 2 2 2 2 2 3 3 3 3 2 1 1 1 1 1 0 1 2 4 6 7 8 9 10 11 12 13 13 14 16 17
9 8 7 6 5 5 4 3 3 3 4 3 3 3 3 3 3 4 4 4 4 3 3 2 2 2 2 2 1 2 3 5 7 8 9 10 12 13 14 14 15 16 17 18
10 9 8 6 6 5 4 4 4 4 5 5 5 5 5 4 4 4 5 4 4 4 3 4 4 3 3 2 2 3 5 6 8 9 10 12 13 14 15 16 17 18 19 20
10 9 8 7 6 6 6 5 5 6 6 6 6 6 5 5 5 5 4 4 4 4 4 4 3 3 3 3 4 5 7 8 9 10 12 13 14 15 16 18 19 20 20 21
11 10 9 8 7 7 7 6 6 6 6 6 6 6 5 5 5 5 4 4 4 4 4 4 3 3 4 5 6 7 8 10 11 12 13 14 15 17 18 19 20 21 21 22
12 11 10 9 8 8 7 7 6 6 6 5 5 5 5 5 4 4 4 3 3 3 3 3 4 4 5 6 8 9 10 11 12 13 14 16 17 19 19 20 21 22 23 24
13 12 11 9 8 7 7 6 6 6 5 5 5 5 4 4 3 3 3 3 3 3 3 4 5 6 7 8 9 10 11 13 14 15 16 18 19 20 21 22 23 24 25 27
13 12 11 9 8 7 7 7 6 5 5 5 5 4 3 2 2 2 2 2 2 3 4 5 6 7 8 9 10 12 13 15 16 17 18 19 21 22 23 24 25 26 28 29
14 13 11 10 9 8 7 7 6 5 5 4 3 3 2 2 1 0 1 2 3 4 5 6 8 9 10 11 12 14 15 16 18 19 20 21 22 24 25 26 27 28 30 31
15 13 12 11 10 9 8 7 6 5 4 3 3 2 2 2 1 1 2 3 4 5 7 8 10 11 12 13 15 16 17 18 19 20 21 23 25 26 27 28 29 30 31 33
Wind_Direction
254 258 260 263 263 263 266 270 277 284 285 282 280 280 280 281 279 279 277 276 276 274 273 275 274 272 272 274 281 288 294 298 301 303 305 307 312 315 317 317 318 318 321 322
257 262 265 264 261 263 269 274 279 283 283 282 279 281 282 280 278 280 281 279 276 273 272 270 269 271 272 277 285 292 296 297 298 301 304 307 310 316 321 322 324 327 327 326
258 264 270 271 265 268 271 277 282 286 285 282 280 284 282 280 278 279 284 284 281 279 272 266 267 273 274 276 280 288 294 295 298 300 305 309 313 320 325 329 331 332 333 331
262 266 270 269 272 273 277 281 284 284 280 281 282 285 286 283 280 282 284 287 286 283 275 273 275 277 278 276 279 283 289 294 300 304 307 313 319 323 326 330 334 336 338 338
262 267 271 273 275 281 287 285 286 287 281 281 285 286 285 284 284 285 282 284 285 280 274 271 273 277 275 272 275 280 289 299 304 306 308 314 318 319 324 328 332 335 338 340
258 265 269 272 277 281 286 288 287 287 286 285 287 286 286 288 286 282 280 282 283 279 277 273 272 275 270 271 278 283 292 300 305 309 315 317 319 322 325 327 330 335 338 342
256 263 266 270 276 281 284 286 286 287 288 287 287 285 288 291 292 287 282 280 281 279 276 273 272 275 272 282 283 286 292 300 307 312 317 320 320 323 325 327 332 336 340 342
255 260 266 269 273 276 278 280 283 284 283 284 288 289 290 293 294 292 289 282 281 279 276 273 272 276 274 277 284 290 292 298 306 310 315 320 323 327 329 332 336 338 340 343
252 257 261 266 269 272 276 279 281 277 279 284 288 288 288 292 294 295 292 290 284 277 272 270 269 271 275 270 279 288 296 305 315 318 322 328 331 333 334 334 334 335 339 342
252 253 256 258 263 270 275 278 278 272 273 284 290 290 285 287 289 294 292 294 290 282 275 267 263 264 270 264 261 276 299 316 325 328 330 336 340 342 343 342 340 340 341 343
249 249 251 256 264 269 267 270 276 275 273 281 290 293 291 287 289 293 290 283 283 278 263 258 251 245 248 265 260 277 295 308 317 323 328 337 342 343 345 347 348 350 349 347
244 242 245 249 257 264 262 263 272 271 273 280 290 297 292 285 290 293 290 284 273 260 253 253 246 250 254 263 265 273 298 321 332 340 339 341 343 343 341 343 348 351 352 351
239 240 242 245 251 255 255 258 263 262 268 281 292 295 289 280 289 288 287 274 263 243 234 240 241 250 245 243 259 267 284 317 333 339 339 335 342 343 341 342 342 343 345 345
232 236 237 238 239 238 241 247 251 256 265 278 284 281 276 272 278 282 264 209 202 199 192 177 167 162 163 285 297 293 304 338 345 341 342 342 343 342 341 342 342 342 341 342
223 226 226 224 217 217 225 237 241 248 264 268 264 254 248 239 239 226 173 165 167 161 150 137 125 116 102 41 329 293 348 343 342 345 343 342 344 343 341 339 338 338 339 339
211 210 208 201 201 207 214 223 231 239 249 246 242 235 218 213 202 181 164 167 173 167 137 108 89 83 81 91 96 26 346 341 346 348 347 344 343 342 340 337 335 334 334 335
197 192 186 188 194 197 200 212 224 228 228 216 205 198 183 176 180 175 152 139 129 134 128 92 82 94 101 117 82 27 357 346 343 341 341 341 339 338 338 336 335 333 332 331
185 182 180 181 185 188 193 203 209 204 185 174 178 181 172 161 148 137 120 117 116 114 108 94 73 89 86 75 39 6 353 348 346 345 343 342 341 339 337 336 333 332 331 330
183 185 182 180 181 182 177 175 178 170 160 153 149 149 147 143 132 124 115 111 103 100 98 91 83 75 52 60 33 351 341 341 341 341 341 339 336 334 333 333 332 331 331 331
183 181 179 177 171 163 155 150 151 151 149 139 129 127 125 125 126 119 110 102 96 90 81 72 73 63 52 42 11 349 342 340 340 339 337 335 334 334 333 332 331 330 330 330
179 177 175 170 163 154 149 144 140 139 141 135 124 119 117 118 118 108 101 97 93 83 72 69 63 50 36 15 358 351 348 345 341 337 336 335 335 334 333 332 331 331 330 329
175 172 167 161 156 151 147 143 139 137 135 131 123 116 113 115 111 102 97 89 79 72 64 58 47 29 13 3 357 351 348 345 341 339 338 336 335 334 333 332 331 330 328 327
176 172 165 159 157 156 153 148 143 141 138 135 129 123 119 114 105 98 92 82 70 62 57 46 29 14 3 356 351 347 345 343 340 339 339 338 337 336 335 334 332 330 329 328
175 172 169 166 163 159 156 152 146 144 142 140 137 132 124 117 109 96 86 71 54 45 34 20 7 360 355 351 348 345 343 341 339 338 337 336 335 335 334 333 332 331 330 329
179 177 174 171 169 166 163 160 154 149 146 144 141 138 134 130 118 95 66 36 19 13 5 358 353 349 347 346 344 342 340 339 337 336 334 334 334 333 333 332 331 330 329 329
182 181 180 178 176 174 171 167 161 158 156 154 156 160 165 168 163 130 19 5 357 353 351 349 346 343 341 339 338 337 336 336 336 336 335 335 334 333 333 332 330 329 329 330
185 184 183 182 181 181 179 177 173 172 173 173 176 183 194 207 234 291 321 330 332 334 335 336 336 335 334 334 334 334 335 336 336 336 334 333 332 332 332 331 331 330 330 330
Height
5797 5797 5797 5797 5797 5797 5797 5797 5797 5797 5795 5793 5791 5790 5789 5788 5787 5785 5784 5783 5783 5782 5781 5781 5780 5780 5780 5779 5779 5778 5777 5775 5774 5772 5769 5767 5764 5761 5758 5755 5753 5749 5746 5742
5793 5793 5793 5793 5793 5793 5793 5793 5792 5791 5790 5788 5786 5785 5784 5783 5782 5781 5780 5779 5778 5777 5776 5776 5776 5775 5775 5775 5775 5774 5772 5771 5769 5768 5766 5763 5761 5758 5755 5752 5750 5747 5744 5740
5790 5790 5790 5790 5790 5789 5789 5788 5787 5786 5786 5783 5782 5781 5779 5778 5777 5776 5775 5774 5773 5772 5771 5771 5771 5771 5771 5771 5770 5770 5768 5767 5766 5764 5762 5760 5758 5756 5753 5750 5748 5745 5742 5738
5786 5787 5787 5789 5786 5785 5785 5784 5783 5782 5780 5779 5777 5776 5775 5774 5773 5772 5771 5770 5769 5768 5767 5768 5768 5767 5767 5767 5766 5766 5765 5764 5763 5761 5759 5758 5756 5754 5751 5749 5746 5743 5740 5737
5782 5782 5783 5783 5782 5781 5780 5780 5779 5778 5776 5775 5773 5772 5771 5770 5769 5768 5767 5766 5766 5765 5764 5764 5764 5764 5764 5763 5763 5763 5762 5761 5760 5758 5757 5755 5754 5752 5750 5747 5745 5742 5738 5735
5778 5779 5779 5780 5779 5777 5778 5776 5775 5774 5772 5771 5770 5769 5769 5767 5766 5765 5764 5763 5762 5762 5761 5761 5761 5761 5760 5760 5760 5760 5759 5758 5757 5756 5755 5753 5752 5750 5747 5745 5743 5740 5737 5734
5774 5774 5775 5776 5775 5774 5775 5774 5772 5770 5769 5768 5767 5766 5765 5764 5763 5762 5761 5760 5759 5759 5758 5758 5758 5758 5758 5758 5758 5757 5757 5756 5755 5754 5753 5751 5750 5748 5746 5743 5741 5738 5735 5733
5770 5771 5774 5771 5771 5771 5771 5769 5768 5767 5766 5765 5764 5763 5762 5761 5760 5759 5758 5757 5756 5756 5756 5756 5756 5756 5756 5755 5755 5755 5754 5754 5753 5752 5751 5750 5748 5746 5744 5742 5739 5737 5734 5732
5767 5769 5768 5767 5767 5767 5766 5765 5764 5764 5763 5762 5761 5760 5759 5758 5757 5756 5755 5754 5754 5753 5753 5753 5753 5754 5754 5753 5753 5753 5752 5752 5751 5750 5749 5748 5746 5744 5742 5740 5738 5735 5733 5731
5762 5763 5763 5763 5763 5763 5763 5762 5761 5761 5760 5759 5758 5757 5756 5756 5755 5754 5753 5752 5752 5751 5751 5751 5752 5752 5752 5752 5751 5751 5751 5750 5750 5749 5748 5746 5745 5743 5741 5739 5736 5734 5732 5730
5758 5759 5759 5760 5760 5760 5759 5759 5759 5758 5757 5757 5756 5755 5754 5754 5753 5752 5751 5751 5750 5750 5750 5750 5750 5750 5750 5750 5750 5750 5749 5749 5748 5747 5746 5745 5744 5742 5740 5738 5736 5734 5731 5729
5755 5756 5756 5757 5757 5757 5756 5756 5756 5756 5755 5755 5754 5753 5752 5752 5751 5751 5750 5749 5749 5749 5749 5749 5749 5749 5749 5749 5749 5749 5748 5748 5747 5746 5745 5744 5743 5741 5739 5737 5735 5733 5731 5728
5751 5752 5753 5754 5754 5754 5754 5754 5754 5754 5753 5753 5752 5751 5751 5750 5750 5749 5749 5748 5748 5748 5748 5748 5748 5748 5748 5748 5748 5748 5748 5747 5746 5746 5745 5744 5742 5740 5739 5737 5734 5732 5730 5728
5748 5749 5750 5751 5751 5751 5752 5752 5752 5752 5752 5751 5751 5750 5750 5749 5749 5749 5748 5748 5748 5748 5747 5748 5747 5747 5747 5747 5747 5747 5747 5746 5746 5745 5744 5743 5741 5739 5737 5735 5733 5731 5729 5727
5745 5746 5747 5748 5749 5749 5750 5750 5751 5751 5750 5750 5750 5749 5749 5749 5749 5748 5748 5748 5747 5747 5747 5747 5747 5747 5747 5747 5746 5746 5746 5746 5745 5744 5743 5742 5740 5739 5736 5734 5732 5730 5728 5725
5743 5744 5745 5747 5748 5748 5748 5749 5749 5749 5749 5749 5749 5749 5749 5748 5748 5748 5748 5747 5747 5747 5747 5747 5747 5747 5747 5746 5746 5746 5746 5746 5745 5744 5743 5741 5739 5737 5735 5733 5731 5728 5726 5724
5742 5743 5744 5746 5747 5747 5747 5747 5747 5747 5748 5748 5748 5748 5748 5748 5748 5748 5747 5747 5747 5747 5747 5747 5747 5747 5746 5746 5746 5746 5746 5745 5745 5743 5742 5740 5738 5736 5734 5732 5729 5727 5724 5721
5741 5742 5744 5745 5745 5746 5746 5746 5746 5746 5747 5747 5747 5748 5748 5748 5748 5748 5748 5747 5747 5747 5747 5747 5747 5747 5746 5746 5746 5746 5746 5745 5744 5743 5741 5739 5737 5735 5732 5730 5727 5724 5722 5718
5740 5742 5743 5744 5744 5745 5745 5745 5745 5746 5746 5747 5747 5747 5748 5748 5748 5748 5748 5748 5748 5748 5748 5747 5747 5747 5747 5746 5746 5746 5745 5744 5743 5742 5740 5738 5736 5733 5730 5727 5725 5721 5718 5715
5739 5741 5742 5743 5744 5744 5745 5745 5745 5746 5746 5747 5748 5748 5748 5749 5749 5749 5749 5749 5749 5749 5748 5748 5748 5747 5747 5747 5746 5746 5745 5744 5742 5740 5739 5736 5734 5731 5728 5725 5722 5719 5715 5712
5739 5741 5742 5743 5744 5744 5745 5745 5746 5746 5747 5748 5749 5749 5750 5750 5750 5750 5750 5750 5750 5750 5749 5749 5749 5748 5748 5747 5746 5745 5744 5743 5741 5739 5737 5734 5731 5729 5725 5722 5719 5715 5712 5708
5739 5741 5742 5743 5744 5745 5745 5746 5747 5748 5749 5749 5750 5750 5751 5751 5751 5751 5752 5752 5751 5751 5750 5750 5750 5749 5748 5747 5746 5745 5744 5742 5740 5737 5735 5732 5729 5726 5723 5720 5716 5712 5708 5705
5739 5741 5743 5744 5745 5746 5746 5747 5748 5749 5750 5751 5751 5752 5752 5753 5753 5753 5753 5753 5752 5752 5751 5751 5750 5749 5749 5747 5746 5744 5743 5741 5738 5736 5733 5730 5727 5724 5720 5717 5713 5709 5705 5700
5739 5741 5743 5744 5745 5746 5747 5748 5749 5750 5751 5751 5752 5753 5753 5754 5754 5754 5753 5753 5753 5753 5752 5752 5751 5750 5749 5747 5745 5743 5742 5739 5737 5734 5731 5728 5725 5721 5717 5713 5709 5705 5700 5696
5738 5741 5743 5744 5746 5747 5748 5749 5750 5751 5752 5752 5753 5754 5754 5754 5754 5754 5754 5754 5754 5753 5752 5752 5751 5749 5748 5746 5744 5742 5740 5738 5735 5732 5729 5725 5722 5718 5714 5710 5705 5701 5696 5691
5738 5740 5742 5744 5746 5747 5748 5749 5750 5751 5752 5753 5753 5754 5754 5755 5755 5755 5755 5754 5754 5753 5752 5751 5750 5749 5747 5745 5743 5741 5738 5736 5733 5729 5726 5722 5718 5714 5710 5705 5701 5696 5690 5685
5737 5739 5741 5744 5745 5747 5748 5749 5750 5751 5752 5753 5753 5754 5754 5754 5754 5754 5754 5754 5753 5752 5751 5750 5749 5747 5745 5743 5741 5739 5736 5733 5730 5726 5723 5719 5715 5710 5706 5701 5696 5690 5685 5679